Weather History for MZBZ - June, 2012

Change the Weather History Date:

Wednesday, June 27, 2012

  Actual Average Record
Temperature  
Mean Temperature 86 °F -  
Max Temperature 91 °F 88 °F - ()
Min Temperature 80 °F 76 °F - ()
Cooling Degree Days 20    
Growing Degree Days 36 (Base 50)    
Moisture  
Dew Point 78 °F    
Average Humidity 76    
Maximum Humidity 90    
Minimum Humidity 58    
Precipitation  
Precipitation 0.00 in 0.32 in - ()
Sea Level Pressure  
Sea Level Pressure 29.86 in    
Wind  
Wind Speed 4 mph ()    
Max Wind Speed 10 mph    
Max Gust Speed -    
Visibility 8.1 miles    
Events      
T = Trace of Precipitation, MM = Missing Value Source: Averaged Metar Reports

Daily Weather History Graph

Daily Weather History Graph

Search for Another Location

Airport or City:

Trip Planner

Search our weather history database for the weather conditions in past years. The results will help you decide how hot, cold, wet, or windy it might be!

Date:

Astronomy

Jun. 27, 2012 Rise Set
Actual Time 5:21 AM CST 6:31 PM CST
Civil Twilight 4:57 AM CST 6:55 PM CST
Nautical Twilight 4:28 AM CST 7:24 PM CST
Astronomical Twilight 3:59 AM CST 7:53 PM CST
Moon 12:29 PM CST (6/27) No Moon Set
Length of Visible Light 13h 58m
Length of Day
13h 10m
First Quarter, 57% of the Moon is Illuminated
Jun 27
First Quarter
Jul 3
Full
Jul 10
Last Quarter
Jul 18
New
Jul 26
First Quarter

Hourly Weather History & Observations

Time (CST) Temp. Heat Index Dew Point Humidity Pressure Visibility Wind Dir Wind Speed Gust Speed Precip Events Conditions
12:00 AM 82 °F - 77 °F 81% 29.83 in 12 mi SSE 6.9 mph - -  
3:00 AM 80 °F - 78 °F 90% 29.81 in 12 mi Calm Calm - -   Scattered Clouds
5:00 AM 80.6 °F 87.1 °F 77.0 °F 89% 29.80 in 6.2 mi Calm Calm - N/A   Mostly Cloudy
6:00 AM 80 °F - 77 °F 89% 29.84 in 12 mi Calm Calm - -  
6:00 AM 80.6 °F 87.1 °F 77.0 °F 89% 29.83 in 6.2 mi Calm Calm - N/A   Mostly Cloudy
7:00 AM 82.4 °F 92.4 °F 78.8 °F 89% 29.86 in 6.2 mi Calm Calm - N/A   Mostly Cloudy
8:00 AM 86.0 °F 96.9 °F 77.0 °F 74% 29.86 in 6.2 mi South 4.6 mph - N/A   Mostly Cloudy
9:00 AM 87 °F - 77 °F 65% 29.89 in 12 mi SSE 3.5 mph - -   Scattered Clouds
9:00 AM 87.8 °F 99.7 °F 77.0 °F 70% 29.88 in 6.2 mi SSE 3.5 mph - N/A   Mostly Cloudy
11:00 AM 89.6 °F 98.2 °F 73.4 °F 59% 29.87 in 6.2 mi SSE 4.6 mph - N/A   Scattered Clouds
12:00 PM 90 °F - 77 °F 58% 29.88 in 12 mi ENE 6.9 mph - -   Scattered Clouds
12:00 PM 91.4 °F 105.1 °F 77.0 °F 63% 29.87 in 6.2 mi ENE 6.9 mph - N/A   Scattered Clouds
1:00 PM 91.4 °F 107.2 °F 78.8 °F 66% 29.87 in 6.2 mi ENE 9.2 mph - N/A   Scattered Clouds
2:00 PM 89.6 °F 104.7 °F 78.8 °F 70% 29.86 in 6.2 mi ENE 10.4 mph - N/A   Partly Cloudy
3:00 PM 89.6 °F 104.7 °F 78.8 °F 70% 29.85 in 6.2 mi ENE 9.2 mph - N/A   Partly Cloudy
4:00 PM 89.6 °F 108.2 °F 80.6 °F 75% 29.85 in 6.2 mi East 9.2 mph - N/A   Partly Cloudy
5:00 PM 87.8 °F 102.5 °F 78.8 °F 75% 29.86 in 6.2 mi East 8.1 mph - N/A   Scattered Clouds
6:00 PM 87 °F - 80 °F 75% 29.88 in 12 mi East 5.8 mph - -  
6:00 PM 86.0 °F 101.9 °F 80.6 °F 84% 29.87 in 6.2 mi East 5.8 mph - N/A   Scattered Clouds
9:00 PM 84 °F - 80 °F 83% 29.94 in 12 mi East 3.5 mph - -   Scattered Clouds
9:00 PM 84.2 °F 98.3 °F 80.6 °F 89% 29.93 in 6.2 mi East 3.5 mph - N/A   Scattered Clouds